Weather in Finspang

Sweden     58°42′15″N   15°46′20″E
temp.,
°C
wind,
m/s
gust,
m/s
humid.,
%
clouds,
%
prec.,
mm/h
press.,
hPa
HPBL,
m
17 may, tue
tue1723:00+6nnw22462 0.0 102216
02:00+4nne23580 0.0 102454
05:00+2n310650 0.0 1025222
08:00+8nne36415 0.0 1025652
11:00+12nne34295 0.0 10261490
14:00+15n33245 0.0 10251877
17:00+15n22254 0.0 10251867
20:00+12n11380 0.0 102612
18 may, wed
wed1823:00+5sse39634 0.0 1027184
02:00+4ssw28650 0.0 1027152
05:00+3sw28780 0.0 1027151
08:00+11wsw46500 0.0 1026464
11:00+17wsw46352 0.0 10251118
14:00+20wsw5626100 0.0 10231588
17:00+20wsw582496 0.0 10211723
20:00+17w2638100 0.0 1021269
19 may, thu
thu1923:00+11sw2351100 0.0 102160
02:00+11sw31078100 0.0 1020298
05:00+13sw31081100 0.0 1019389
08:00+15wsw2677100 0.0 1019399
11:00+18wsw3566100 0.0 1018948
14:00+22wsw463899 0.0 10161617
17:00+23w4628100 0.0 10151799
20:00+18wnw4838100 0.0 1015632
20 may, fri
fri2023:00+10wsw2694100 0.8 1015190
02:00+10w3894100 1.0 1014318
05:00+10wsw2796100 0.7 1013352
08:00+12wsw478416 1.8 1013621
11:00+18w34400 0.0 10121174
14:00+22wnw23285 0.0 10122014
17:00+22w21275 0.0 10102314
20:00+17ene1145100 0.0 101066
21 may, sat
sat2123:00+11e2472100 0.0 1010159
02:00+10ese1388100 0.0 1010147
05:00+9e1395100 0.0 1008134
08:00+10sse1287100 0.7 1008357
11:00+12nw1179100 0.1 1007588
14:00+10ene1194100 1.6 1008152
17:00+10n1295100 2.4 1008225
20:00+9n1197100 4.3 100971